Oklahoma City, OK

9:43 AM CDT on April 26, 2017 (GMT -0500)
Will Rogers World

Weather History for KOKC - March, 2014

Change the Weather History Date:

Saturday, March 8, 2014

  Actual Average Record
Temperature  
Mean Temperature 42 °F 50 °F  
Max Temperature 51 °F 61 °F 84 °F (1911)
Min Temperature 33 °F 39 °F 9 °F (1967)
Degree Days  
Heating Degree Days 23 15  
Month to date heating degree days 243 131  
Since 1 July heating degree days 3331 2881  
Cooling Degree Days 0 0  
Month to date cooling degree days 0 0  
Year to date cooling degree days 0 1  
Moisture  
Dew Point 28 °F    
Average Humidity 69    
Maximum Humidity 79    
Minimum Humidity 59    
Precipitation  
Precipitation T in 0.09 in 2.06 in (1994)
Month to date precipitation 0.35 0.71  
Year to date precipitation 0.78 3.68  
Snow  
Snow 0.00 in 0.00 in 4.00 in (1994)
Month to date snowfall 1.5 0.3  
Since 1 July snowfall 10.2 7.0  
Snow Depth 0.00 in    
Sea Level Pressure  
Sea Level Pressure 30.19 in    
Wind  
Wind Speed 18 mph (North)    
Max Wind Speed 30 mph    
Max Gust Speed 37 mph    
Visibility 8 miles    
Events Rain    
T = Trace of Precipitation, MM = Missing Value Source: NWS Daily Summary

Daily Weather History Graph

Daily Weather History Graph

Search for Another Location

Airport or City:

Trip Planner

Search our weather history database for the weather conditions in past years. The results will help you decide how hot, cold, wet, or windy it might be!

Date:

Astronomy

Mar. 08, 2014 Rise Set
Actual Time 6:50 AM CST 6:32 PM CST
Civil Twilight 6:25 AM CST 6:57 PM CST
Nautical Twilight 5:55 AM CST 7:26 PM CST
Astronomical Twilight 5:26 AM CST 7:56 PM CST
Moon 11:46 AM CST (3/8) 1:18 AM CST (3/8)
Length of Visible Light 12h 32m
Length of Day
11h 41m
First Quarter, 52% of the Moon is Illuminated
Mar 8
First Quarter
Mar 16
Full
Mar 23
Last Quarter
Mar 30
New
Apr 7
First Quarter

Hourly Weather History & Observations

Time (CST) Temp. Windchill Dew Point Humidity Pressure Visibility Wind Dir Wind Speed Gust Speed Precip Events Conditions
12:52 AM 51.1 °F - 37.0 °F 59% 29.88 in 10.0 mi NNE 6.9 mph - N/A   Mostly Cloudy
1:52 AM 46.0 °F 39.0 °F 37.9 °F 73% 29.90 in 8.0 mi North 17.3 mph - N/A   Overcast
2:52 AM 43.0 °F 33.5 °F 36.0 °F 76% 29.93 in 4.0 mi NNW 24.2 mph 28.8 mph N/A   Haze
3:45 AM 41.0 °F 31.6 °F 35.6 °F 81% 29.98 in 4.0 mi NNW 20.7 mph - N/A   Haze
3:52 AM 41.0 °F 31.6 °F 35.1 °F 79% 29.97 in 4.0 mi North 20.7 mph 29.9 mph N/A   Haze
4:52 AM 39.9 °F 29.2 °F 33.1 °F 77% 29.96 in 5.0 mi North 25.3 mph 32.2 mph N/A   Haze
5:52 AM 39.0 °F 28.8 °F 30.9 °F 73% 30.01 in 5.0 mi North 21.9 mph 27.6 mph N/A   Haze
6:52 AM 37.9 °F 28.9 °F 30.0 °F 73% 30.08 in 5.0 mi North 16.1 mph 25.3 mph N/A   Haze
7:42 AM 37.4 °F 26.6 °F 28.4 °F 70% 30.09 in 5.0 mi North 21.9 mph - N/A   Haze
7:52 AM 37.0 °F 27.4 °F 28.0 °F 70% 30.12 in 5.0 mi North 17.3 mph - N/A   Haze
8:52 AM 36.0 °F 24.2 °F 27.0 °F 70% 30.16 in 6.0 mi North 24.2 mph 28.8 mph N/A   Haze
9:52 AM 36.0 °F 23.2 °F 25.0 °F 64% 30.21 in 8.0 mi North 28.8 mph 34.5 mph N/A   Overcast
10:52 AM 37.0 °F 25.9 °F 25.0 °F 62% 30.21 in 9.0 mi North 23.0 mph 29.9 mph N/A   Overcast
11:52 AM 37.0 °F 25.4 °F 26.1 °F 65% 30.20 in 9.0 mi North 25.3 mph 31.1 mph N/A   Overcast
12:52 PM 36.0 °F 26.0 °F 28.0 °F 73% 30.22 in 7.0 mi North 17.3 mph 24.2 mph 0.00 in Rain Light Rain
1:38 PM 35.6 °F 24.0 °F 26.6 °F 70% 30.21 in 9.0 mi North 23.0 mph 26.5 mph 0.00 in   Overcast
1:52 PM 35.1 °F 23.8 °F 27.0 °F 72% 30.23 in 10.0 mi North 20.7 mph 28.8 mph 0.00 in   Overcast
2:52 PM 34.0 °F 23.4 °F 26.1 °F 73% 30.26 in 10.0 mi North 17.3 mph - N/A   Overcast
3:52 PM 34.0 °F 23.4 °F 26.1 °F 73% 30.27 in 10.0 mi North 17.3 mph - N/A   Overcast
4:52 PM 33.1 °F 22.6 °F 26.1 °F 75% 30.28 in 10.0 mi North 16.1 mph 24.2 mph N/A   Overcast
5:52 PM 34.0 °F 24.2 °F 27.0 °F 75% 30.30 in 10.0 mi North 15.0 mph - N/A   Overcast
6:52 PM 34.0 °F 23.4 °F 26.1 °F 73% 30.32 in 10.0 mi North 17.3 mph - N/A   Overcast
7:52 PM 35.1 °F 26.9 °F 26.1 °F 70% 30.34 in 10.0 mi North 11.5 mph - N/A   Overcast
8:52 PM 36.0 °F 27.1 °F 26.1 °F 67% 30.34 in 10.0 mi North 13.8 mph - N/A   Overcast
9:27 PM 35.6 °F 28.0 °F 26.6 °F 70% 30.32 in 10.0 mi North 10.4 mph - N/A   Overcast
9:42 PM 35.6 °F 28.0 °F 26.6 °F 70% 30.32 in 10.0 mi NNW 10.4 mph - N/A   Overcast
9:52 PM 36.0 °F 28.5 °F 27.0 °F 70% 30.35 in 10.0 mi North 10.4 mph - N/A   Overcast
10:26 PM 37.4 °F 30.8 °F 26.6 °F 65% 30.32 in 10.0 mi North 9.2 mph - N/A   Overcast
10:52 PM 37.0 °F 29.8 °F 26.1 °F 65% 30.35 in 10.0 mi North 10.4 mph - N/A   Overcast
11:23 PM 37.4 °F 30.8 °F 26.6 °F 65% 30.33 in 10.0 mi North 9.2 mph - N/A   Overcast
11:52 PM 37.9 °F 32.1 °F 25.0 °F 60% 30.35 in 10.0 mi North 8.1 mph - N/A   Overcast